Time,TemperatureF,DewpointF,PressureIn,WindDirection,WindDirectionDegrees,WindSpeedMPH,WindSpeedGustMPH,Humidity,HourlyPrecipIn,Conditions,Clouds,dailyrainin,SolarRadiationWatts/m^2,SoftwareType,DateUTC
2013-05-16 00:02:00,45.0,41.0,-100.00,SSW,202,4.0,6.0,86,0.00,,,0.00,0.000000,,2013-05-16 07:02:00,
2013-05-16 00:12:00,45.0,41.0,-100.00,SSW,202,4.0,6.0,86,0.00,,,0.00,0.000000,,2013-05-16 07:12:00,
2013-05-16 00:24:00,45.0,41.0,-100.00,SSW,202,4.0,6.0,86,0.00,,,0.00,0.000000,,2013-05-16 07:24:00,
2013-05-16 00:34:00,45.0,39.0,-100.00,South,169,4.0,11.0,80,0.00,,,0.00,0.000000,,2013-05-16 07:34:00,
2013-05-16 00:54:00,45.0,39.0,-100.00,South,169,4.0,11.0,80,0.00,,,0.00,0.000000,,2013-05-16 07:54:00,
2013-05-16 01:03:00,45.0,39.0,-100.00,South,169,4.0,11.0,80,0.00,,,0.00,0.000000,,2013-05-16 08:03:00,
2013-05-16 01:13:00,45.0,39.0,-100.00,South,169,4.0,11.0,80,0.00,,,0.00,0.000000,,2013-05-16 08:13:00,
2013-05-16 01:23:00,45.0,39.0,-100.00,South,169,4.0,11.0,80,0.00,,,0.00,0.000000,,2013-05-16 08:23:00,
2013-05-16 01:34:00,45.0,39.0,-100.00,SSW,196,4.0,12.0,78,0.00,,,0.00,0.000000,,2013-05-16 08:34:00,
2013-05-16 01:55:00,45.0,39.0,-100.00,SSW,196,4.0,12.0,78,0.00,,,0.00,0.000000,,2013-05-16 08:55:00,
2013-05-16 02:04:00,45.0,39.0,-100.00,SSW,196,4.0,12.0,78,0.00,,,0.00,0.000000,,2013-05-16 09:04:00,
2013-05-16 02:14:00,45.0,39.0,-100.00,SSW,196,4.0,12.0,78,0.00,,,0.00,0.000000,,2013-05-16 09:14:00,
2013-05-16 02:24:00,45.0,39.0,-100.00,SSW,196,4.0,12.0,78,0.00,,,0.00,0.000000,,2013-05-16 09:24:00,
2013-05-16 02:34:00,45.0,39.0,-100.00,SSE,159,5.0,13.0,78,0.00,,,0.00,0.000000,,2013-05-16 09:34:00,
2013-05-16 02:55:00,45.0,39.0,-100.00,SSE,159,5.0,13.0,78,0.00,,,0.00,0.000000,,2013-05-16 09:55:00,
2013-05-16 03:04:00,45.0,39.0,-100.00,SSE,159,5.0,13.0,78,0.00,,,0.00,0.000000,,2013-05-16 10:04:00,
2013-05-16 03:15:00,45.0,39.0,-100.00,SSE,159,5.0,13.0,78,0.00,,,0.00,0.000000,,2013-05-16 10:15:00,
2013-05-16 03:24:00,45.0,39.0,-100.00,SSE,159,5.0,13.0,78,0.00,,,0.00,0.000000,,2013-05-16 10:24:00,
2013-05-16 03:34:00,43.0,38.0,-100.00,ENE,61,3.0,11.0,83,0.00,,,0.00,0.000000,,2013-05-16 10:34:00,
2013-05-16 03:56:00,43.0,38.0,-100.00,ENE,61,3.0,11.0,83,0.00,,,0.00,0.000000,,2013-05-16 10:56:00,
2013-05-16 04:05:00,43.0,38.0,-100.00,ENE,61,3.0,11.0,83,0.00,,,0.00,0.000000,,2013-05-16 11:05:00,
2013-05-16 04:14:00,43.0,38.0,-100.00,ENE,61,3.0,11.0,83,0.00,,,0.00,0.000000,,2013-05-16 11:14:00,
2013-05-16 04:25:00,43.0,38.0,-100.00,ENE,61,3.0,11.0,83,0.00,,,0.00,0.000000,,2013-05-16 11:25:00,
2013-05-16 04:34:00,43.0,39.0,-100.00,SSW,195,2.0,10.0,85,0.00,,,0.00,0.000000,,2013-05-16 11:34:00,
2013-05-16 04:57:00,43.0,39.0,-100.00,SSW,195,2.0,10.0,85,0.00,,,0.00,0.000000,,2013-05-16 11:57:00,
2013-05-16 05:06:00,43.0,39.0,-100.00,SSW,195,2.0,10.0,85,0.00,,,0.00,0.000000,,2013-05-16 12:06:00,
2013-05-16 05:13:00,43.0,39.0,-100.00,SSW,195,2.0,10.0,85,0.00,,,0.00,0.000000,,2013-05-16 12:13:00,
2013-05-16 05:23:00,43.0,39.0,-100.00,SSW,195,2.0,10.0,85,0.00,,,0.00,0.000000,,2013-05-16 12:23:00,
2013-05-16 05:34:00,42.0,38.0,-100.00,SW,214,2.0,6.0,86,0.00,,,0.00,1.000000,,2013-05-16 12:34:00,
2013-05-16 05:53:00,42.0,38.0,-100.00,SW,214,2.0,6.0,86,0.00,,,0.00,1.000000,,2013-05-16 12:53:00,
2013-05-16 06:04:00,42.0,38.0,-100.00,SW,214,2.0,6.0,86,0.00,,,0.00,1.000000,,2013-05-16 13:04:00,
2013-05-16 06:12:00,42.0,38.0,-100.00,SW,214,2.0,6.0,86,0.00,,,0.00,1.000000,,2013-05-16 13:12:00,
2013-05-16 06:26:00,42.0,38.0,-100.00,SW,214,2.0,6.0,86,0.00,,,0.00,1.000000,,2013-05-16 13:26:00,
2013-05-16 06:34:00,44.0,40.0,-100.00,SW,228,3.0,7.0,85,0.00,,,0.00,23.000000,,2013-05-16 13:34:00,
2013-05-16 06:55:00,44.0,40.0,-100.00,SW,228,3.0,7.0,85,0.00,,,0.00,23.000000,,2013-05-16 13:55:00,
2013-05-16 07:05:00,44.0,40.0,-100.00,SW,228,3.0,7.0,85,0.00,,,0.00,23.000000,,2013-05-16 14:05:00,
2013-05-16 07:15:00,44.0,40.0,-100.00,SW,228,3.0,7.0,85,0.00,,,0.00,23.000000,,2013-05-16 14:15:00,
2013-05-16 07:23:00,44.0,40.0,-100.00,SW,228,3.0,7.0,85,0.00,,,0.00,23.000000,,2013-05-16 14:23:00,
2013-05-16 07:34:00,46.0,41.0,-100.00,SSW,192,2.0,6.0,81,0.00,,,0.00,67.000000,,2013-05-16 14:34:00,
2013-05-16 07:56:00,46.0,41.0,-100.00,SSW,192,2.0,6.0,81,0.00,,,0.00,67.000000,,2013-05-16 14:56:00,
2013-05-16 08:08:00,46.0,41.0,-100.00,SSW,192,2.0,6.0,81,0.00,,,0.00,67.000000,,2013-05-16 15:08:00,
2013-05-16 08:17:00,46.0,41.0,-100.00,SSW,192,2.0,6.0,81,0.00,,,0.00,67.000000,,2013-05-16 15:17:00,
2013-05-16 08:28:00,46.0,41.0,-100.00,SSW,192,2.0,6.0,81,0.00,,,0.00,67.000000,,2013-05-16 15:28:00,
2013-05-16 08:34:00,48.0,-99.9,-100.00,WSW,246,1.0,6.0,76,0.00,,,0.00,150.000000,,2013-05-16 15:34:00,
2013-05-16 09:00:00,48.0,41.0,-100.00,WSW,246,1.0,6.0,76,0.00,,,0.00,150.000000,,2013-05-16 16:00:00,
2013-05-16 09:09:00,48.0,41.0,-100.00,WSW,246,1.0,6.0,76,0.00,,,0.00,150.000000,,2013-05-16 16:09:00,
2013-05-16 09:19:00,48.0,41.0,-100.00,WSW,246,1.0,6.0,76,0.00,,,0.00,150.000000,,2013-05-16 16:19:00,
2013-05-16 09:30:00,48.0,41.0,-100.00,WSW,246,1.0,6.0,76,0.00,,,0.00,150.000000,,2013-05-16 16:30:00,
2013-05-16 09:34:00,50.0,41.0,-100.00,NNE,20,2.0,5.0,72,0.00,,,-99.99,201.000000,,2013-05-16 16:34:00,
2013-05-16 10:00:00,50.0,41.0,-100.00,NNE,20,2.0,5.0,72,0.00,,,-99.99,201.000000,,2013-05-16 17:00:00,
2013-05-16 10:10:00,50.0,41.0,-100.00,NNE,20,2.0,5.0,72,0.00,,,-99.99,201.000000,,2013-05-16 17:10:00,
2013-05-16 10:20:00,50.0,41.0,-100.00,NNE,20,2.0,5.0,72,0.00,,,-99.99,201.000000,,2013-05-16 17:20:00,
2013-05-16 10:30:00,50.0,41.0,-100.00,NNE,20,2.0,5.0,72,0.00,,,-99.99,201.000000,,2013-05-16 17:30:00,
2013-05-16 10:34:00,-999.0,-99.9,-100.00,NE,49,3.0,6.0,69,0.00,,,0.00,449.000000,,2013-05-16 17:34:00,
2013-05-16 11:00:00,-999.0,-99.9,-100.00,NE,49,3.0,6.0,69,0.00,,,0.00,449.000000,,2013-05-16 18:00:00,
2013-05-16 11:10:00,53.0,43.0,-100.00,NE,49,3.0,6.0,69,0.00,,,0.00,449.000000,,2013-05-16 18:10:00,
2013-05-16 11:20:00,53.0,43.0,-100.00,NE,49,3.0,6.0,69,0.00,,,0.00,449.000000,,2013-05-16 18:20:00,
2013-05-16 11:30:00,-999.0,-99.9,-100.00,NE,49,3.0,6.0,69,0.00,,,0.00,449.000000,,2013-05-16 18:30:00,
2013-05-16 11:34:00,58.0,-99.9,-100.00,North,6,4.0,9.0,54,0.00,,,0.00,927.000000,,2013-05-16 18:34:00,
2013-05-16 12:00:00,-999.0,-99.9,-100.00,North,6,4.0,9.0,54,0.00,,,0.00,927.000000,,2013-05-16 19:00:00,
2013-05-16 12:10:00,58.0,41.0,-100.00,North,6,4.0,9.0,54,0.00,,,0.00,927.000000,,2013-05-16 19:10:00,
2013-05-16 12:20:00,58.0,41.0,-100.00,North,6,4.0,9.0,54,0.00,,,0.00,927.000000,,2013-05-16 19:20:00,
2013-05-16 12:30:00,58.0,41.0,-100.00,North,6,4.0,9.0,54,0.00,,,0.00,927.000000,,2013-05-16 19:30:00,
2013-05-16 12:34:00,-999.0,-99.9,-100.00,NNE,31,5.0,10.0,47,0.00,,,0.00,1033.000000,,2013-05-16 19:34:00,
2013-05-16 13:00:00,-999.0,-99.9,-100.00,NNE,31,5.0,10.0,47,0.00,,,0.00,1033.000000,,2013-05-16 20:00:00,
2013-05-16 13:10:00,-999.0,-99.9,-100.00,NNE,31,5.0,10.0,47,0.00,,,0.00,1033.000000,,2013-05-16 20:10:00,
2013-05-16 13:20:00,62.0,-99.9,-100.00,NNE,31,5.0,10.0,47,0.00,,,0.00,1033.000000,,2013-05-16 20:20:00,
2013-05-16 13:30:00,62.0,42.0,-100.00,NNE,31,5.0,10.0,47,0.00,,,0.00,1033.000000,,2013-05-16 20:30:00,
2013-05-16 13:34:00,58.0,40.0,-100.00,NNE,26,2.0,8.0,52,0.00,,,0.00,577.000000,,2013-05-16 20:34:00,
2013-05-16 14:00:00,58.0,-99.9,-100.00,NNE,26,2.0,8.0,52,0.00,,,0.00,577.000000,,2013-05-16 21:00:00,
2013-05-16 14:10:00,58.0,-99.9,-100.00,NNE,26,2.0,8.0,52,0.00,,,0.00,577.000000,,2013-05-16 21:10:00,
2013-05-16 14:20:00,58.0,-99.9,-100.00,NNE,26,2.0,8.0,52,0.00,,,0.00,577.000000,,2013-05-16 21:20:00,
2013-05-16 14:29:00,58.0,40.0,-100.00,NNE,26,2.0,8.0,52,0.00,,,0.00,577.000000,,2013-05-16 21:29:00,
2013-05-16 14:34:00,61.0,41.0,-100.00,NNE,27,2.0,6.0,47,0.00,,,0.00,336.000000,,2013-05-16 21:34:00,
2013-05-16 15:00:00,-999.0,-99.9,-100.00,NNE,27,2.0,6.0,47,0.00,,,0.00,336.000000,,2013-05-16 22:00:00,
2013-05-16 15:08:00,61.0,41.0,-100.00,NNE,27,2.0,6.0,47,0.00,,,0.00,336.000000,,2013-05-16 22:08:00,
2013-05-16 15:20:00,61.0,41.0,-100.00,NNE,27,2.0,6.0,47,0.00,,,0.00,336.000000,,2013-05-16 22:20:00,
2013-05-16 15:30:00,61.0,41.0,-100.00,NNE,27,2.0,6.0,47,0.00,,,0.00,336.000000,,2013-05-16 22:30:00,
2013-05-16 15:34:00,59.0,37.0,-100.00,SSW,205,6.0,9.0,44,0.00,,,0.00,367.000000,,2013-05-16 22:34:00,
2013-05-16 16:01:00,59.0,37.0,-100.00,SSW,205,6.0,9.0,44,0.00,,,0.00,367.000000,,2013-05-16 23:01:00,
2013-05-16 16:06:00,59.0,37.0,-100.00,SSW,205,6.0,9.0,44,0.00,,,0.00,367.000000,,2013-05-16 23:06:00,
2013-05-16 16:16:00,59.0,37.0,-100.00,SSW,205,6.0,9.0,44,0.00,,,0.00,367.000000,,2013-05-16 23:16:00,
2013-05-16 16:24:00,59.0,37.0,-100.00,SSW,205,6.0,9.0,44,0.00,,,0.00,367.000000,,2013-05-16 23:24:00,
2013-05-16 16:54:00,52.0,45.0,-100.00,West,267,2.0,10.0,77,0.14,,,0.14,184.000000,,2013-05-16 23:54:00,
2013-05-16 17:02:00,52.0,45.0,-100.00,West,267,2.0,10.0,77,0.14,,,0.14,184.000000,,2013-05-17 00:02:00,
2013-05-16 17:53:00,52.0,46.0,-100.00,SW,224,5.0,8.0,81,-99.99,,,0.14,146.000000,,2013-05-17 00:53:00,
2013-05-16 18:03:00,52.0,46.0,-100.00,SW,224,5.0,8.0,81,-99.99,,,0.14,146.000000,,2013-05-17 01:03:00,
2013-05-16 18:52:00,53.0,47.0,-100.00,SW,228,2.0,11.0,79,-99.99,,,0.14,158.000000,,2013-05-17 01:52:00,
2013-05-16 19:02:00,53.0,47.0,-100.00,SW,228,2.0,11.0,79,-99.99,,,0.14,158.000000,,2013-05-17 02:02:00,
2013-05-16 19:21:00,53.0,47.0,-100.00,SW,228,2.0,11.0,79,-99.99,,,0.14,158.000000,,2013-05-17 02:21:00,
2013-05-16 19:32:00,53.0,47.0,-100.00,SW,228,2.0,11.0,79,-99.99,,,0.14,158.000000,,2013-05-17 02:32:00,
2013-05-16 19:53:00,50.0,43.0,-100.00,SW,215,4.0,7.0,76,0.00,,,0.14,71.000000,,2013-05-17 02:53:00,
2013-05-16 20:01:00,50.0,43.0,-100.00,SW,215,4.0,7.0,76,0.00,,,0.14,71.000000,,2013-05-17 03:01:00,
2013-05-16 20:33:00,50.0,43.0,-100.00,SW,215,4.0,7.0,76,0.00,,,0.14,71.000000,,2013-05-17 03:33:00,
2013-05-16 20:53:00,47.0,41.0,-100.00,SSW,209,4.0,6.0,79,-99.99,,,0.14,21.000000,,2013-05-17 03:53:00,
2013-05-16 21:02:00,47.0,41.0,-100.00,SSW,209,4.0,6.0,79,-99.99,,,0.14,21.000000,,2013-05-17 04:02:00,
2013-05-16 21:33:00,47.0,41.0,-100.00,SSW,209,4.0,6.0,79,-99.99,,,0.14,21.000000,,2013-05-17 04:33:00,
2013-05-16 21:53:00,46.0,41.0,-100.00,SW,220,3.0,5.0,83,-99.99,,,0.14,1.000000,,2013-05-17 04:53:00,
2013-05-16 22:02:00,46.0,41.0,-100.00,SW,220,3.0,5.0,83,-99.99,,,0.14,1.000000,,2013-05-17 05:02:00,
2013-05-16 22:21:00,46.0,41.0,-100.00,SW,220,3.0,5.0,83,-99.99,,,0.14,1.000000,,2013-05-17 05:21:00,
2013-05-16 22:32:00,46.0,41.0,-100.00,SW,220,3.0,5.0,83,-99.99,,,0.14,1.000000,,2013-05-17 05:32:00,
2013-05-16 22:52:00,46.0,41.0,-100.00,SW,220,3.0,5.0,81,0.00,,,0.14,0.000000,,2013-05-17 05:52:00,
2013-05-16 23:01:00,46.0,41.0,-100.00,SW,220,3.0,5.0,81,0.00,,,0.14,0.000000,,2013-05-17 06:01:00,
2013-05-16 23:11:00,46.0,41.0,-100.00,SW,220,3.0,5.0,81,0.00,,,0.14,0.000000,,2013-05-17 06:11:00,
2013-05-16 23:21:00,46.0,41.0,-100.00,SW,220,3.0,5.0,81,0.00,,,0.14,0.000000,,2013-05-17 06:21:00,
2013-05-16 23:32:00,46.0,41.0,-100.00,SW,220,3.0,5.0,81,0.00,,,0.14,0.000000,,2013-05-17 06:32:00,
2013-05-16 23:52:00,44.0,41.0,-100.00,SW,217,4.0,6.0,88,0.00,,,0.14,0.000000,,2013-05-17 06:52:00,